This is the latest recevied weather packets stored in our database for station/object KC5TIL-3. If no packets are shown the sender has not sent any weather packets the latest 10 day(s).
| Time | Temp. | Humidity | Pressure | Rain* | Wind** | Luminosity | Snow |
|---|---|---|---|---|---|---|---|
| 1777631586 | 14.44° C | 62% | 1012.8 hPa | 0 mm | 1.34 m/s, 24° | - | - |
| 1777631288 | 14.44° C | 60% | 1012.8 hPa | 0 mm | 1.79 m/s, 351° | - | - |
| 1777630986 | 14.44° C | 60% | 1012.8 hPa | 0 mm | 1.79 m/s, 47° | - | - |
| 1777630689 | 14.44° C | 59% | 1012.8 hPa | 0 mm | 1.79 m/s, 28° | - | - |
| 1777630391 | 14.44° C | 58% | 1012.8 hPa | 0 mm | 2.24 m/s, 60° | - | - |
| 1777630089 | 14.44° C | 58% | 1012.8 hPa | 0 mm | 2.68 m/s, 22° | - | - |
| 1777629791 | 14.44° C | 57% | 1012.8 hPa | 0 mm | 1.34 m/s, 51° | - | - |
| 1777629493 | 14.44° C | 57% | 1012.8 hPa | 0 mm | 1.34 m/s, 68° | - | - |
| 1777629191 | 14.44° C | 56% | 1012.8 hPa | 0 mm | 0 m/s | - | - |
| 1777628893 | 14.44° C | 54% | 1013.8 hPa | 0 mm | 0 m/s | - | - |
| 1777628594 | 14.44° C | 53% | 1013.8 hPa | 0 mm | 1.34 m/s, 9° | - | - |
| 1777628293 | 14.44° C | 53% | 1013.8 hPa | 0 mm | 1.79 m/s, 17° | - | - |
| 1777627996 | 14.44° C | 52% | 1012.8 hPa | 0 mm | 1.79 m/s, 320° | - | - |
| 1777627697 | 14.44° C | 52% | 1012.8 hPa | 0 mm | 1.34 m/s, 79° | - | - |
| 1777627396 | 14.44° C | 51% | 1012.8 hPa | 0 mm | 2.24 m/s, 129° | - | - |
| 1777627098 | 14.44° C | 51% | 1012.8 hPa | 0 mm | 1.79 m/s, 114° | - | - |
| 1777626799 | 14.44° C | 51% | 1012.8 hPa | 0 mm | 1.79 m/s, 173° | - | - |
| 1777626498 | 14.44° C | 51% | 1012.8 hPa | 0 mm | 2.24 m/s, 109° | - | - |
| 1777625897 | 15° C | 50% | 1012.8 hPa | 0 mm | 1.79 m/s, 129° | - | - |
| 1777625596 | 15° C | 50% | 1012.8 hPa | 0 mm | 1.79 m/s, 166° | - | - |
| 1777625298 | 15° C | 49% | 1012.8 hPa | 0 mm | 1.34 m/s, 188° | - | - |
| 1777624999 | 15° C | 49% | 1012.8 hPa | 0 mm | 2.24 m/s, 325° | - | - |
| 1777624698 | 15° C | 49% | 1012.8 hPa | 0 mm | 1.79 m/s, 12° | - | - |
| 1777624102 | 15° C | 50% | 1012.8 hPa | 0 mm | 2.24 m/s, 319° | - | - |
| 1777623801 | 15° C | 51% | 1012.8 hPa | 0 mm | 2.24 m/s, 341° | - | - |
* Rain latest hour (hover to see other rain measurements)
** Current wind speed in m/s (hover to see current wind gust speed)